Regional Weather Roundup
Issued by NWS Little Rock, AR

Home | Current Version | Previous Version | Graphics & Text | Print | Product List | Glossary On
Versions: 1 2 3 4 5 6 7 8 9 10 11 12 13 14 15 16 17 18 19 20 21 22 23 24 25 26 27 28 29 30 31 32 33 34 35 36 37 38 39 40 41 42 43 44 45 46 47 48 49
000
ASUS44 KLZK 290305
RWRLZK

WEATHER ROUNDUP FOR ARKANSAS
NATIONAL WEATHER SERVICE LITTLE ROCK AR
1000 PM CDT FRI AUG 28 2015

NOTE: "FAIR" INDICATES FEW OR NO CLOUDS BELOW 12,000 FEET WITH NO
SIGNIFICANT WEATHER AND/OR OBSTRUCTIONS TO VISIBILITY.

ARZ001-003-010-029-290400-
NORTHWEST ARKANSAS

CITY           SKY/WX    TMP DP  RH WIND       PRES   REMARKS
FAYETTEVILLE   CLOUDY    73  63  70 S7        30.00R
FORT SMITH     CLOUDY    76  65  68 E3        29.98R
BENTONVILLE    MOCLDY    73  61  64 S7        30.01R
ROGERS         CLOUDY    73  62  68 SE6       30.02R
SILOAM SPGS    CLOUDY    73  61  64 S6        29.98R
HIGHFILL       MOCLDY    74  64  71 SE6       30.00R
$$

ARZ004-005-016-290400-
NORTH CENTRAL ARKANSAS

CITY           SKY/WX    TMP DP  RH WIND       PRES   REMARKS
BATESVILLE     PTCLDY    70  64  83 CALM      30.04R
FLIPPIN        MOCLDY    73  57  56 SE3       30.01R
MTN HOME       MOCLDY    71  61  70 SE5       30.03R
$$

ARZ040-041-290400-
WEST CENTRAL ARKANSAS

CITY           SKY/WX    TMP DP  RH WIND       PRES   REMARKS
MENA           PTCLDY    70  63  78 CALM      30.04R
MOUNT IDA      PTCLDY    68  62  81 CALM      30.01R
$$

ARZ009-017-025-026-028-290400-
NORTHEAST ARKANSAS

CITY           SKY/WX    TMP DP  RH WIND       PRES   REMARKS
JONESBORO      PTCLDY    68  66  93 CALM      30.03R
NEWPORT        PTCLDY    73  67  81 CALM      30.04R
WALNUT RIDGE   MOCLDY    73  63  68 CALM      30.04R
BLYTHEVILLE    CLEAR     73  69  87 E7        30.04R
$$

ARZ022-023-033-042-044-290400-
CENTRAL ARKANSAS

CITY           SKY/WX    TMP DP  RH WIND       PRES   REMARKS
LITTLE ROCK    PTCLDY    72  63  73 CALM      30.02R
N LITTLE ROCK  PTCLDY    76  62  61 SE5       30.02R
JACKSONVILLE   MOCLDY    69  62  79 CALM      30.02R
SEARCY         CLEAR     68  64  87 CALM      30.04S
HOT SPRINGS    PTCLDY    73  61  65 E5        30.03R
RUSSELLVILLE   MOCLDY    74  61  63 VRB3      30.01R
$$

ARZ036-290400-
EAST ARKANSAS

CITY           SKY/WX    TMP DP  RH WIND       PRES   REMARKS
WEST MEMPHIS   CLEAR     71  68  90 CALM      30.03R
$$

ARZ050-053-066-070-073-290400-
SOUTHWEST ARKANSAS

CITY           SKY/WX    TMP DP  RH WIND       PRES   REMARKS
ARKADELPHIA    FAIR      69  67  93 CALM      30.02R
CAMDEN         CLEAR     66  64  94 CALM      30.01R
TEXARKANA      PTCLDY    70  62  76 CALM      30.01R
EL DORADO      CLEAR     69  62  78 CALM      30.01R
DE QUEEN       CLEAR     69  65  86 CALM      29.99R
$$

ARZ056-057-069-290400-
SOUTHEAST ARKANSAS

CITY           SKY/WX    TMP DP  RH WIND       PRES   REMARKS
PINE BLUFF     CLEAR     67  63  87 CALM      30.02R
STUTTGART      CLEAR     73  63  68 CALM      30.03R
MONTICELLO     CLEAR     69  62  78 CALM      30.02R

$$





USA.gov is the U.S. government's official web portal to all federal, state and local government web resources and services.